Location: Unspecified
(0.0000°N, 0.0000°E)
Time: 20:26:32
(UTC+00:00)

N. Korean satellite - Pass Details

Date: 29 May 2023
Orbit: 364 x 379 km, 97.3° (Epoch: 04 June)

Event Time Altitude Azimuth Distance (km) Brightness Sun altitude
Rises 04:57:35 0° 22° (NNE) 2,253 10.7 -13.9°
Reaches altitude 10° 04:59:36 10° 30° (NNE) 1,403 9.7 -13.4°
Maximum altitude 05:02:25 39° 101° (E) 593 7.5 -12.8°
Drops below altitude 10° 05:05:16 10° 172° (S) 1,408 8.8 -12.1°
Sets 05:07:17 0° 180° (S) 2,262 9.7 -11.6°
